Weather in Arbenyevka

Russia / Tambov Oblast     52°03′38″N   42°41′30″E
temp.,
°C
wind,
m/s
gust,
m/s
humid.,
%
clouds,
%
prec.,
mm/h
press.,
hPa
HPBL,
m
27 february, sat
sat2700:00+2wnw51297100 0.1 1006361
03:000wsw61394100 0.1 1006307
06:00+1w6129698 0.0 1005564
09:00+1w7139698 0.0 1004657
12:00+1w713100100 0.1 1003733
15:00+1wnw8159895 0.2 1004794
18:00−5nnw7129097 0.4 1006636
21:00−8nnw5129188 0.4 1010483
28 february, sun
sun2800:00−10nnw499495 0.0 1011352
03:00−11nw379558 0.0 1013191
06:00−12nw379511 0.0 1014171
09:00−10nw479312 0.0 1015324
12:00−8nw369092 0.0 1015478
15:00−6nw358996 0.1 1015581
18:00−8nnw1296100 0.1 101625
21:00−9nne1296100 0.1 101921
1 march, mon
mon100:00−10nne239694 0.0 102044
03:00−12nne229459 0.0 102221
06:00−13n23940 0.0 102326
09:00−12n22930 0.0 1025107
12:00−10nnw228733 0.0 1026256
15:00−8wnw238957 0.0 1026336
18:00−9w239477 0.0 102521
21:00−10wsw349671 0.0 102555
2 march, tue
tue200:00−7sw4109590 0.0 1023222
03:00−6wsw6139495 0.0 1020365
06:00−4wsw81492100 0.1 1016510
09:00−2wsw81496100 1.3 1012653
12:000w81499100 2.3 1009790
15:000wnw71298100 2.6 1008686
18:00−1wnw6139096 0.3 1008477
21:00−3nw6139088 0.3 1010391
3 march, wed
wed300:00−4wnw5129462 0.0 1010310
03:00−4wnw6129476 0.0 1010411
06:00−5nw5129491 0.0 1011402
09:00−3nw7118995 0.1 1012875
12:00−3nnw71184100 0.1 10131137
15:00−3nw71185100 0.3 10151025
18:00−4nw6138998 0.1 1016688
21:00−7nw4119173 0.1 1018253